WetterOnline ( https://www.wetteronline.de )

Wetter aktuell Chopok

Aktuelles Wetter: Telgárt (906m)

6-stündlich | Neueste Meldungen
Ortszeit Temperatur Wetter
So, 16.06. 8:00 15.8° C wolkig
So, 16.06. 2:00 10.8° C -
Sa, 15.06. 20:00 15.1° C fast wolkenlos
Sa, 15.06. 14:00 19.0° C leicht bewölkt
Sa, 15.06. 8:00 12.9° C fast wolkenlos
Sa, 15.06. 2:00 7.1° C -
Fr, 14.06. 20:00 13.1° C wolkig
Fr, 14.06. 14:00 15.8° C wolkig
Ortszeit Temperatur Wetter
So, 16.06. 13:00 16.6° C wolkig
So, 16.06. 12:00 15.5° C bewölkt
So, 16.06. 11:00 14.1° C bedeckt
So, 16.06. 10:00 13.9° C bedeckt, nach Regen
So, 16.06. 9:00 14.3° C leichter Regen
So, 16.06. 8:00 15.8° C wolkig
Ortszeit Relative Feuchte Sichtweite
So, 16.06. 8:00 66% 20 km
So, 16.06. 2:00 90% -
Sa, 15.06. 20:00 71% 50 km
Sa, 15.06. 14:00 54% 40 km
Sa, 15.06. 8:00 76% 50 km
Sa, 15.06. 2:00 95% -
Fr, 14.06. 20:00 82% 25 km
Fr, 14.06. 14:00 57% 40 km
Ortszeit Relative Feuchte Sichtweite
So, 16.06. 13:00 69% 15 km
So, 16.06. 12:00 72% 18 km
So, 16.06. 11:00 78% 18 km
So, 16.06. 10:00 78% 15 km
So, 16.06. 9:00 75% 15 km
So, 16.06. 8:00 66% 20 km
Ortszeit Niederschlagsmenge Niederschlagsart
So, 16.06. 8:00 0.0 l/m2 in 12 Std. -
So, 16.06. 2:00 0.0 l/m2 in 6 Std. -
Sa, 15.06. 20:00 0.0 l/m2 in 12 Std. -
Sa, 15.06. 14:00 0.0 l/m2 in 6 Std. -
Sa, 15.06. 8:00 0.0 l/m2 in 12 Std. -
Sa, 15.06. 2:00 0.0 l/m2 in 6 Std. -
Fr, 14.06. 20:00 0.0 l/m2 in 12 Std. -
Fr, 14.06. 14:00 0.0 l/m2 in 6 Std. -
Ortszeit Niederschlagsmenge Niederschlagsart
So, 16.06. 13:00 0.0 l/m2 in 1 Std. -
So, 16.06. 12:00 0.0 l/m2 in 1 Std. -
So, 16.06. 11:00 0.0 l/m2 in 1 Std. Regen
So, 16.06. 10:00 0.2 l/m2 in 1 Std. Regen
So, 16.06. 9:00 0.1 l/m2 in 1 Std. -
So, 16.06. 8:00 0.0 l/m2 in 1 Std. -
Ortszeit Stärke Spitze Richtung
km/h Bft. km/h Grad Sektor
So, 16.06. 8:00 7 2 - - -
So, 16.06. 2:00 7 2 - 90° O
Sa, 15.06. 20:00 14 3 - 260° W
Sa, 15.06. 14:00 14 3 - 200° S
Sa, 15.06. 8:00 14 3 - 240° SW
Sa, 15.06. 2:00 7 2 - 90° O
Fr, 14.06. 20:00 4 1 - - -
Fr, 14.06. 14:00 7 2 - 70° O
Ortszeit Stärke Spitze Richtung
km/h Bft. km/h Grad Sektor
So, 16.06. 13:00 7 2 - - -
So, 16.06. 12:00 11 2 - 140° SO
So, 16.06. 11:00 4 1 - - -
So, 16.06. 10:00 4 1 - - -
So, 16.06. 9:00 7 2 - - -
So, 16.06. 8:00 7 2 - - -
Ortszeit Untergrenze Bedeckung Gattung
total tief tief mittel hoch
So, 16.06. 8:00 990 m 6/8 4/8 Sc Ac Ci
So, 16.06. 2:00 - - - - - -
Sa, 15.06. 20:00 1080 m 1/8 1/8 Sc - Ci
Sa, 15.06. 14:00 1080 m 2/8 2/8 Cu - Ci
Sa, 15.06. 8:00 1080 m 1/8 1/8 Cu - Ci
Sa, 15.06. 2:00 - - - - - -
Fr, 14.06. 20:00 1080 m 7/8 1/8 Sc As -
Fr, 14.06. 14:00 990 m 7/8 4/8 Cu - Cs
Ortszeit Bedeckungsgrad in Achtel und Wolkenuntergrenze
So, 16.06. 13:00 5(900m) 7(3000m)
So, 16.06. 12:00 5(900m) 8(3000m)
So, 16.06. 11:00 8(990m)
So, 16.06. 10:00 8(990m)
So, 16.06. 9:00 8(990m)
So, 16.06. 8:00 4(990m)
Ortszeit Stationsdruck (hPa) Tendenz (hPa in 3 Std.)
So, 16.06. 8:00 909 - 0,4
So, 16.06. 2:00 910 - 0,7
Sa, 15.06. 20:00 910 - 0,3
Sa, 15.06. 14:00 911 - 0,6
Sa, 15.06. 8:00 911 0,0
Sa, 15.06. 2:00 912 - 0,4
Fr, 14.06. 20:00 912 - 0,1
Fr, 14.06. 14:00 912 - 0,2
Ortszeit Stationsdruck (hPa) Tendenz (hPa in 3 Std.)
So, 16.06. 13:00 909 keine Meldung
So, 16.06. 12:00 909 keine Meldung
So, 16.06. 11:00 909 + 0,4
So, 16.06. 10:00 909 keine Meldung
So, 16.06. 9:00 909 keine Meldung
So, 16.06. 8:00 909 - 0,4
Ortszeit Schneehöhe (cm)
So, 16.06. 8:00 0
So, 16.06. 2:00 -
Sa, 15.06. 20:00 -
Sa, 15.06. 14:00 -
Sa, 15.06. 8:00 0
Sa, 15.06. 2:00 -
Fr, 14.06. 20:00 -
Fr, 14.06. 14:00 -
Ortszeit Schneehöhe (cm)
So, 16.06. 13:00 -
So, 16.06. 12:00 -
So, 16.06. 11:00 -
So, 16.06. 10:00 -
So, 16.06. 9:00 -
So, 16.06. 8:00 0
Link zu dieser Seite / Seite empfehlen

Das Wetter in ...